Hourly Weather Bolshoy Mutor

Today, 24 July, Saturday

Time Temperature Precipitation Wind Pressure Humidity
00:00 +13°C° 0 mm 2 mps 745 mmHg 89%
01:00 +13°C° 0 mm 2 mps 745 mmHg 88%
02:00 +13°C° 0 mm 2 mps 745 mmHg 88%
03:00 +13°C° 0 mm 2 mps 746 mmHg 88%
04:00 +13°C° 0 mm 2 mps 746 mmHg 86%
05:00 +14°C° 0 mm 1 mps 746 mmHg 84%
06:00 +15°C° 0 mm 1 mps 746 mmHg 83%
07:00 +16°C° 0.1 mm 2 mps 747 mmHg 77%
08:00 +17°C° 0.1 mm 2 mps 747 mmHg 71%
09:00 +18°C° 0 mm 2 mps 747 mmHg 66%
10:00 +19°C° 0.3 mm 2 mps 748 mmHg 62%
11:00 +19°C° 0.3 mm 3 mps 748 mmHg 57%
12:00 +20°C° 0.3 mm 3 mps 748 mmHg 52%
13:00 +21°C° 0 mm 3 mps 748 mmHg 48%
14:00 +21°C° 0 mm 3 mps 748 mmHg 45%
15:00 +22°C° 0 mm 3 mps 748 mmHg 41%
16:00 +21°C° 0 mm 3 mps 749 mmHg 45%
17:00 +20°C° 0 mm 3 mps 750 mmHg 49%
18:00 +19°C° 0 mm 3 mps 750 mmHg 54%
19:00 +18°C° 0 mm 2 mps 750 mmHg 58%
20:00 +17°C° 0 mm 2 mps 751 mmHg 62%
21:00 +15°C° 0 mm 1 mps 751 mmHg 66%
22:00 +15°C° 0 mm 1 mps 752 mmHg 68%
23:00 +14°C° 0 mm 1 mps 752 mmHg 70%

Tomorrow, 25 July, Sunday

Time Temperature Precipitation Wind Pressure Humidity
00:00 +14°C° 0 mm 1 mps 752 mmHg 72%
01:00 +13°C° 0 mm 0 mps 753 mmHg 72%
02:00 +13°C° 0 mm 0 mps 753 mmHg 72%
03:00 +13°C° 0 mm 0 mps 753 mmHg 72%
04:00 +13°C° 0 mm 0 mps 754 mmHg 70%
05:00 +13°C° 0 mm 0 mps 754 mmHg 69%
06:00 +14°C° 0 mm 0 mps 754 mmHg 67%
07:00 +15°C° 0 mm 0 mps 755 mmHg 64%
08:00 +16°C° 0 mm 0 mps 755 mmHg 61%
09:00 +18°C° 0 mm 1 mps 755 mmHg 58%
10:00 +20°C° 0 mm 1 mps 755 mmHg 52%
11:00 +21°C° 0 mm 1 mps 755 mmHg 46%
12:00 +22°C° 0 mm 1 mps 756 mmHg 39%
13:00 +23°C° 0 mm 2 mps 756 mmHg 38%
14:00 +23°C° 0 mm 2 mps 755 mmHg 36%
15:00 +24°C° 0 mm 2 mps 755 mmHg 34%
16:00 +24°C° 0 mm 2 mps 755 mmHg 37%
17:00 +23°C° 0 mm 2 mps 755 mmHg 39%
18:00 +23°C° 0 mm 2 mps 755 mmHg 42%
19:00 +20°C° 0 mm 2 mps 756 mmHg 45%
20:00 +20°C° 0 mm 1 mps 756 mmHg 49%
21:00 +18°C° 0 mm 1 mps 756 mmHg 53%
22:00 +18°C° 0 mm 1 mps 756 mmHg 54%
23:00 +16°C° 0 mm 1 mps 756 mmHg 55%

Day after tomorrow, 26 July, Monday

Time Temperature Precipitation Wind Pressure Humidity
00:00 +16°C° 0 mm 1 mps 757 mmHg 57%
01:00 +16°C° 0 mm 1 mps 757 mmHg 57%
02:00 +15°C° 0 mm 1 mps 757 mmHg 57%
03:00 +15°C° 0 mm 1 mps 757 mmHg 57%
04:00 +16°C° 0 mm 1 mps 757 mmHg 57%
05:00 +16°C° 0 mm 1 mps 757 mmHg 57%
06:00 +18°C° 0 mm 1 mps 758 mmHg 57%
07:00 +19°C° 0 mm 1 mps 758 mmHg 53%
08:00 +20°C° 0 mm 2 mps 758 mmHg 48%
09:00 +21°C° 0 mm 2 mps 758 mmHg 44%
10:00 +23°C° 0 mm 2 mps 758 mmHg 40%
11:00 +24°C° 0 mm 2 mps 758 mmHg 37%
12:00 +26°C° 0 mm 3 mps 758 mmHg 34%
13:00 +26°C° 0 mm 2 mps 757 mmHg 34%
14:00 +26°C° 0 mm 2 mps 757 mmHg 35%
15:00 +26°C° 0 mm 1 mps 757 mmHg 36%
16:00 +25°C° 0 mm 1 mps 757 mmHg 38%
17:00 +25°C° 0 mm 1 mps 757 mmHg 41%
18:00 +24°C° 0 mm 1 mps 756 mmHg 43%
19:00 +23°C° 0 mm 1 mps 756 mmHg 47%
20:00 +21°C° 0 mm 1 mps 757 mmHg 51%
21:00 +19°C° 0 mm 1 mps 757 mmHg 55%
22:00 +19°C° 0 mm 1 mps 757 mmHg 55%
23:00 +18°C° 0 mm 2 mps 757 mmHg 55%

27 July, Tuesday

Time Temperature Precipitation Wind Pressure Humidity
00:00 +18°C° 0 mm 2 mps 757 mmHg 55%
01:00 +17°C° 0 mm 2 mps 757 mmHg 58%
02:00 +16°C° 0 mm 2 mps 757 mmHg 62%
03:00 +15°C° 0 mm 2 mps 757 mmHg 65%
04:00 +16°C° 0 mm 2 mps 757 mmHg 65%
05:00 +17°C° 0 mm 2 mps 757 mmHg 65%
06:00 +18°C° 0 mm 1 mps 757 mmHg 65%
07:00 +20°C° 0 mm 2 mps 757 mmHg 58%
08:00 +23°C° 0 mm 2 mps 756 mmHg 52%
09:00 +25°C° 0 mm 2 mps 756 mmHg 45%
10:00 +27°C° 0 mm 2 mps 756 mmHg 42%
11:00 +28°C° 0 mm 3 mps 756 mmHg 38%
12:00 +29°C° 0 mm 3 mps 755 mmHg 34%
13:00 +29°C° 0 mm 3 mps 755 mmHg 35%
14:00 +29°C° 0 mm 3 mps 755 mmHg 37%
15:00 +28°C° 0 mm 3 mps 754 mmHg 38%
16:00 +28°C° 0 mm 3 mps 754 mmHg 40%
17:00 +28°C° 0 mm 3 mps 754 mmHg 42%
18:00 +27°C° 0 mm 3 mps 754 mmHg 43%
19:00 +25°C° 0.2 mm 3 mps 754 mmHg 54%
20:00 +21°C° 0.2 mm 2 mps 754 mmHg 65%
21:00 +19°C° 0.2 mm 2 mps 754 mmHg 76%
22:00 +19°C° 0.1 mm 1 mps 754 mmHg 79%
23:00 +18°C° 0.1 mm 1 mps 754 mmHg 82%

28 July, Wednesday

Time Temperature Precipitation Wind Pressure Humidity
00:00 +18°C° 0.1 mm 1 mps 754 mmHg 86%
01:00 +16°C° 0 mm 1 mps 754 mmHg 87%
02:00 +16°C° 0 mm 1 mps 754 mmHg 88%
03:00 +16°C° 0 mm 1 mps 754 mmHg 89%
04:00 +16°C° 0 mm 1 mps 754 mmHg 87%
05:00 +18°C° 0 mm 1 mps 753 mmHg 86%
06:00 +19°C° 0 mm 1 mps 753 mmHg 84%
07:00 +21°C° 0 mm 1 mps 753 mmHg 76%
08:00 +23°C° 0 mm 1 mps 753 mmHg 67%
09:00 +25°C° 0 mm 1 mps 753 mmHg 59%
10:00 +27°C° 0 mm 1 mps 753 mmHg 51%
11:00 +28°C° 0 mm 1 mps 752 mmHg 44%
12:00 +30°C° 0 mm 2 mps 752 mmHg 37%
13:00 +29°C° 0 mm 1 mps 752 mmHg 40%
14:00 +29°C° 0 mm 1 mps 751 mmHg 43%
15:00 +28°C° 0 mm 1 mps 751 mmHg 46%
16:00 +28°C° 0 mm 1 mps 751 mmHg 45%
17:00 +28°C° 0 mm 1 mps 750 mmHg 44%
18:00 +29°C° 0 mm 1 mps 750 mmHg 43%
19:00 +26°C° 0.2 mm 1 mps 750 mmHg 53%
20:00 +24°C° 0.2 mm 1 mps 750 mmHg 62%
21:00 +20°C° 0.2 mm 2 mps 750 mmHg 71%
22:00 +20°C° 0 mm 2 mps 750 mmHg 74%
23:00 +19°C° 0 mm 2 mps 749 mmHg 77%

29 July, Thursday

Time Temperature Precipitation Wind Pressure Humidity
00:00 +18°C° 0 mm 2 mps 749 mmHg 80%
01:00 +18°C° 0 mm 2 mps 749 mmHg 80%
02:00 +18°C° 0 mm 2 mps 748 mmHg 81%
03:00 +18°C° 0 mm 2 mps 748 mmHg 82%
04:00 +18°C° 0 mm 2 mps 748 mmHg 80%
05:00 +19°C° 0 mm 2 mps 748 mmHg 79%
06:00 +20°C° 0 mm 1 mps 748 mmHg 78%
07:00 +21°C° 0 mm 2 mps 748 mmHg 71%
08:00 +22°C° 0 mm 3 mps 748 mmHg 64%
09:00 +25°C° 0 mm 4 mps 747 mmHg 57%
10:00 +26°C° 0 mm 4 mps 747 mmHg 52%
11:00 +27°C° 0 mm 4 mps 747 mmHg 48%
12:00 +29°C° 0 mm 4 mps 747 mmHg 43%
13:00 +28°C° 0 mm 4 mps 747 mmHg 46%
14:00 +27°C° 0 mm 4 mps 747 mmHg 50%
15:00 +26°C° 0 mm 4 mps 747 mmHg 53%
16:00 +25°C° 0 mm 4 mps 746 mmHg 60%
17:00 +24°C° 0 mm 3 mps 746 mmHg 66%
18:00 +21°C° 0 mm 3 mps 746 mmHg 73%
19:00 +20°C° 0 mm 2 mps 746 mmHg 79%
20:00 +19°C° 0 mm 2 mps 746 mmHg 86%
21:00 +19°C° 0 mm 1 mps 746 mmHg 92%
22:00 +18°C° 0 mm 1 mps 746 mmHg 93%
23:00 +18°C° 0 mm 1 mps 746 mmHg 95%
Show more

We Need Your Consent

Meteoprog and our Service Providers may store and access personal data such as cookies, device identifiers or other similar technologies on your device and process such data to personalise content and ads, as well as provide social media features and to analyse the traffic.

  • Store and/or access information on your device

    Cookies, device identifiers or other information can be stored or accessed on your device for the purposes indicated above.

  • Personalised ads and content, ad and content measurement, audience insights, and products development

    Ads and content can be personalised based on a profile. More data can be added to better personalise ads and content. Ad and content performance can be measured. Insights about the audience who saw the ads and content can be derived. Such data can be used to develop or improve user’s experience, systems and software.

By clicking ‘I Agree’ you will allow the use of indicated cookies, device identifiers, web beacons or other similar technologies. Your settings can be changed in the browser on your device.

For certain purposes, legitimate interests may be relied on, rather than consent. You can read more about this in our Privacy and Cookie Policy.